Regional Weather Roundup
Issued by NWS Midland/Odessa, TX

Home | Current Version | Previous Version | Text Only | Print | Product List | Glossary On
Versions: 1 2 3 4 5 6 7 8 9 10 11 12 13 14 15 16 17 18 19 20 21 22 23 24 25 26 27 28 29 30 31 32 33 34 35 36 37 38 39 40 41 42 43 44 45 46 47 48 49 50
000
ASUS44 KMAF 251410
RWRMAF
MIDLAND AREA WEATHER ROUNDUP
NATIONAL WEATHER SERVICE MIDLAND TX
900 AM CDT TUE JUL 25 2017

...IN SOUTHWEST TEXAS AND SOUTHEAST NEW MEXICO...

CITY           SKY/WX    TMP DP  RH WIND       PRES   REMARKS
ALPINE         CLOUDY    75  61  62 W6        30.25R
ANDREWS        FAIR      77  62  61 S10       30.13R
ARTESIA        SUNNY     79  64  61 SE14      30.12R
BIG SPRING     CLOUDY    78  65  65 S14       30.13R
CARLSBAD       SUNNY     77  67  71 SE8       30.10R
DRYDEN           N/A     80  68  66 SE13      30.07R
FORT STOCKTON  SUNNY     78  59  51 S13       30.10R
GUAD PASS      SUNNY     74  60  61 W3        30.26R
HOBBS          SUNNY     75  61  60 S10       30.15R
MARFA          CLOUDY    72  61  68 MISG      30.25R
MIDLAND AIRPK  CLOUDY    77  65  65 S8        30.12S
MIDLAND INTL   CLOUDY    77  65  66 SE7       30.11R
ODESSA         CLOUDY    79  64  60 MISG      30.12R
PECOS          CLOUDY    77  62  59 NE3       30.07S
PRESIDIO       FAIR      82  61  49 E3        30.11R
SEMINOLE       CLOUDY    75  64  67 S5        30.15R
SNYDER         SUNNY     77  67  71 S8        30.12R
WINK           CLOUDY    76  64  66 SE12      30.07S
$$
...OTHER STATIONS IN TEXAS...

CITY           SKY/WX    TMP DP  RH WIND       PRES   REMARKS
ABILENE        SUNNY     80  70  71 S10       30.09R
AMARILLO       MOSUNNY   77  64  64 SW15      30.13S
AUSTIN         CLOUDY    81  76  84 S10       30.10R
BROWNSVILLE    MOSUNNY   84  78  82 S14       30.04R
CORPUS CHRISTI CLOUDY    84  78  82 SE10      30.06R
DALLAS FTW     MOSUNNY   82  74  76 S12       30.07R
DEL RIO        SUNNY     82  71  69 E14       30.05R
EL PASO        MOSUNNY   75  63  66 S5        30.16R
HOUSTON INT    PTSUNNY   83  76  79 S5        30.11R
LUBBOCK        MOSUNNY   79  64  60 S9        30.13R
SAN ANGELO     SUNNY     79  69  71 S10       30.09R
SAN ANTONIO    PTSUNNY   81  73  76 S13       30.10R
WACO           PTSUNNY   82  75  79 S15       30.09R
WICHITA FALLS  NOT AVBL
$$
...OTHER LOCATIONS IN NEW MEXICO...

CITY           SKY/WX    TMP DP  RH WIND       PRES   REMARKS
ALAMOGORDO     SUNNY     73  63  68 SE3       30.18S
ALBUQUERQUE    CLOUDY    71  61  70 S10       30.24R
CANNON AFB     MOSUNNY   74  67  77 S10       30.18R
CLOVIS         SUNNY     74  65  73 S10       30.17R
HOLLOMAN AFB   SUNNY     77  66  69 SW6       30.18R
ROSWELL        SUNNY     79  60  52 S18       30.11R
RUIDOSO        SUNNY     66  57  72 N5        30.35R
SANTA FE       MOSUNNY   68  62  81 N9        30.29R
TRUTH OR CONSE SUNNY     72  61  68 S7        30.19R
TUCUMCARI      CLOUDY    79  63  57 SW13      30.11R
$$



USA.gov is the U.S. government's official web portal to all federal, state and local government web resources and services.